This demonstration page uses our WeatherBlox Daily Observations layout. Learn more.

Left ArrowRight Arrow

39.29038, -76.61219

Hourly Observations for March 1, 2017

Temp ( °F °C ) Dew Point ( °F °C ) Humidity (%) Winds ( mph kmh ) Pressure ( in mb ) Visibility ( mi km ) Precip ( " mm )
12:54 am 00:54 undefined 57 13.9 54 12.2 90 90 undefined N/A 29.98 1015 N/A 0.00 0.00
1:54 am 01:54 undefined 58 14.4 55 12.8 90 90 undefined N/A 29.95 1014 N/A 0.00 0.00
2:54 am 02:54 undefined 57 13.9 54 12.2 90 90 undefined N/A 29.91 1013 N/A 0.00 0.00
3:54 am 03:54 undefined 58 14.4 55 12.8 90 90 undefined N/A 29.89 1012 N/A 0.00 0.00
4:54 am 04:54 undefined 59 15 55 12.8 87 87 undefined N/A 29.85 1011 N/A 0.00 0.00
5:54 am 05:54 undefined 59 15 55 12.8 87 87 undefined N/A 29.83 1010 N/A 0.00 0.00
6:54 am 06:54 undefined 59 15 55 12.8 87 87 undefined N/A 29.80 1009 N/A 0.00 0.00
7:54 am 07:54 undefined 58 14.4 54 12.2 87 87 undefined N/A 29.77 1008 N/A 0.00 0.00
8:54 am 08:54 undefined 63 17.2 56 13.3 78 78 undefined N/A 29.74 1007 N/A 0.00 0.00
9:54 am 09:54 undefined 65 18.3 57 13.9 76 76 undefined N/A 29.73 1007 N/A 0.00 0.00
10:54 am 10:54 undefined 68 20 58 14.4 70 70 undefined N/A 29.70 1006 N/A 0.00 0.00
11:54 am 11:54 undefined 72 22.2 58 14.4 61 61 undefined N/A 29.66 1005 N/A 0.00 0.00
12:54 pm 12:54 undefined 77 25 58 14.4 52 52 undefined N/A 29.63 1004 N/A 0.00 0.00
1:54 pm 13:54 undefined 76 24.4 56 13.3 50 50 undefined N/A 29.57 1001 N/A 0.00 0.00
2:54 pm 14:54 undefined 71 21.7 50 10 47 47 undefined N/A 29.57 1001 N/A 0.01 0.25
3:54 pm 15:54 undefined 71 21.7 48 8.9 44 44 undefined N/A 29.57 1001 N/A 0.00 0.00
4:54 pm 16:54 undefined 71 21.7 46 7.8 41 41 undefined N/A 29.57 1001 N/A 0.00 0.00
5:54 pm 17:54 undefined 70 21.1 49 9.4 47 47 undefined N/A 29.54 1001 N/A 0.00 0.00
6:54 pm 18:54 undefined 58 14.4 52 11.1 81 81 undefined N/A 30.11 1020 N/A 0.07 1.78
7:54 pm 19:54 undefined 68 20 50 10 53 53 undefined N/A 29.54 1000 N/A 0.00 0.00
8:54 pm 20:54 undefined 66 18.9 51 10.6 59 59 undefined N/A 29.54 1000 N/A 0.00 0.00
9:54 pm 21:54 undefined 64 17.8 52 11.1 65 65 undefined N/A 29.54 1000 N/A 0.00 0.00
10:54 pm 22:54 undefined 64 17.8 52 11.1 65 65 undefined N/A 29.55 1001 N/A 0.00 0.00
11:54 pm 23:54 undefined 64 17.8 51 10.6 63 63 undefined N/A 29.57 1001 N/A 0.00 0.00

Powered by AerisWeather